Arbor Vitae, WI

2:00 PM CDT on July 27, 2017 (GMT -0500)
Lakeland-Lee Memorial

Weather History for KARV - March, 2012

Change the Weather History Date:

Monday, March 26, 2012

  Actual Average Record
Temperature  
Mean Temperature 35 °F -  
Max Temperature 46 °F 41 °F 71 °F (2007)
Min Temperature 24 °F 16 °F -20 °F (1965)
Degree Days  
Heating Degree Days 30    
Moisture  
Dew Point 16 °F    
Average Humidity 50    
Maximum Humidity 80    
Minimum Humidity 20    
Precipitation  
Precipitation 0.00 in - - ()
Sea Level Pressure  
Sea Level Pressure 30.34 in    
Wind  
Wind Speed 8 mph (ESE)    
Max Wind Speed 15 mph    
Max Gust Speed 23 mph    
Visibility 10 miles    
Events      
Averages and records for this station are not official NWS values.
T = Trace of Precipitation, MM = Missing Value Source: NWS Daily Summary

Daily Weather History Graph

Daily Weather History Graph

Search for Another Location

Airport or City:

Trip Planner

Search our weather history database for the weather conditions in past years. The results will help you decide how hot, cold, wet, or windy it might be!

Date:

Astronomy

Mar. 26, 2012 Rise Set
Actual Time 6:49 AM CDT 7:20 PM CDT
Civil Twilight 6:19 AM CDT 7:50 PM CDT
Nautical Twilight 5:44 AM CDT 8:25 PM CDT
Astronomical Twilight 5:07 AM CDT 9:02 PM CDT
Moon 8:24 AM CDT (3/26) 11:46 PM CDT (3/26)
Length of Visible Light 13h 30m
Length of Day
12h 30m
Waxing Crescent, 15% of the Moon is Illuminated
Mar 26
Waxing Crescent
Mar 30
First Quarter
Apr 6
Full
Apr 13
Last Quarter
Apr 21
New

Hourly Weather History & Observations

Time (CDT) Temp. Windchill Dew Point Humidity Pressure Visibility Wind Dir Wind Speed Gust Speed Precip Events Conditions
12:15 AM 32.0 °F 24.8 °F 24.8 °F 75% 30.31 in 10.0 mi NNE 8.1 mph - N/A   Overcast
12:35 AM 32.0 °F 24.8 °F 23.0 °F 69% 30.32 in 10.0 mi NE 8.1 mph - N/A   Overcast
12:55 AM 32.0 °F 24.8 °F 23.0 °F 69% 30.33 in 10.0 mi NE 8.1 mph - N/A   Overcast
1:15 AM 32.0 °F 26.4 °F 21.2 °F 64% 30.33 in 10.0 mi NE 5.8 mph - N/A   Scattered Clouds
1:35 AM 30.2 °F 25.4 °F 19.4 °F 64% 30.34 in 10.0 mi ENE 4.6 mph - N/A   Clear
1:55 AM 30.2 °F 22.6 °F 19.4 °F 64% 30.34 in 10.0 mi ENE 8.1 mph - N/A   Clear
2:15 AM 30.2 °F 21.9 °F 19.4 °F 64% 30.34 in 10.0 mi NE 9.2 mph - N/A   Scattered Clouds
2:35 AM 28.4 °F 23.3 °F 19.4 °F 69% 30.35 in 10.0 mi NE 4.6 mph - N/A   Clear
2:55 AM 28.4 °F 23.3 °F 17.6 °F 64% 30.34 in 10.0 mi NE 4.6 mph - N/A   Clear
3:15 AM 28.4 °F 22.2 °F 17.6 °F 64% 30.34 in 10.0 mi ENE 5.8 mph - N/A   Clear
3:35 AM 28.4 °F 19.7 °F 17.6 °F 64% 30.35 in 10.0 mi NE 9.2 mph - N/A   Clear
3:55 AM 26.6 °F 21.2 °F 17.6 °F 69% 30.36 in 10.0 mi ENE 4.6 mph - N/A   Clear
4:15 AM 26.6 °F 20.0 °F 17.6 °F 69% 30.37 in 10.0 mi East 5.8 mph - N/A   Clear
4:35 AM 26.6 °F 20.0 °F 17.6 °F 69% 30.37 in 10.0 mi East 5.8 mph - N/A   Clear
4:55 AM 26.6 °F 21.2 °F 17.6 °F 69% 30.37 in 10.0 mi East 4.6 mph - N/A   Clear
5:15 AM 24.8 °F 17.9 °F 17.6 °F 74% 30.37 in 10.0 mi East 5.8 mph - N/A   Clear
5:35 AM 24.8 °F 19.1 °F 17.6 °F 74% 30.37 in 10.0 mi East 4.6 mph - N/A   Clear
5:55 AM 24.8 °F 20.5 °F 19.4 °F 80% 30.38 in 10.0 mi East 3.5 mph - N/A   Clear
6:15 AM 24.8 °F 19.1 °F 19.4 °F 80% 30.38 in 10.0 mi East 4.6 mph - N/A   Clear
6:35 AM 24.8 °F - 19.4 °F 80% 30.38 in 10.0 mi Calm Calm - N/A   Clear
6:55 AM 24.8 °F 20.5 °F 19.4 °F 80% 30.38 in 10.0 mi East 3.5 mph - N/A   Clear
7:15 AM 24.8 °F - 19.4 °F 80% 30.39 in 10.0 mi Calm Calm - N/A   Clear
7:55 AM 26.6 °F 18.2 °F 19.4 °F 74% 30.40 in 10.0 mi East 8.1 mph - N/A   Clear
8:15 AM 28.4 °F 19.7 °F 19.4 °F 69% 30.40 in 10.0 mi East 9.2 mph - N/A   Clear
8:35 AM 28.4 °F 19.1 °F 19.4 °F 69% 30.40 in 10.0 mi SE 10.4 mph - N/A   Clear
8:55 AM 30.2 °F 20.2 °F 19.4 °F 64% 30.40 in 10.0 mi ESE 12.7 mph 16.1 mph N/A   Clear
9:15 AM 30.2 °F 22.6 °F 19.4 °F 64% 30.40 in 10.0 mi East 8.1 mph - N/A   Clear
9:35 AM 32.0 °F 24.8 °F 21.2 °F 64% 30.40 in 10.0 mi ESE 8.1 mph - N/A   Clear
9:55 AM 32.0 °F 24.2 °F 17.6 °F 55% 30.40 in 10.0 mi SE 9.2 mph 16.1 mph N/A   Clear
10:15 AM 32.0 °F 25.6 °F 17.6 °F 55% 30.40 in 10.0 mi ESE 6.9 mph - N/A   Clear
10:35 AM 33.8 °F 25.3 °F 17.6 °F 52% 30.40 in 10.0 mi ESE 11.5 mph - N/A   Clear
10:55 AM 35.6 °F 28.6 °F 15.8 °F 44% 30.39 in 10.0 mi SE 9.2 mph 16.1 mph N/A   Clear
11:15 AM 35.6 °F 28.0 °F 15.8 °F 44% 30.39 in 10.0 mi SE 10.4 mph - N/A   Clear
11:35 AM 37.4 °F 31.4 °F 15.8 °F 41% 30.40 in 10.0 mi ESE 8.1 mph - N/A   Clear
11:55 AM 37.4 °F 30.3 °F 14.0 °F 38% 30.39 in 10.0 mi SE 10.4 mph 16.1 mph N/A   Clear
12:15 PM 39.2 °F 32.5 °F 12.2 °F 33% 30.38 in 10.0 mi ESE 10.4 mph 17.3 mph N/A   Clear
12:35 PM 41.0 °F 33.9 °F 14.0 °F 33% 30.37 in 10.0 mi SE 12.7 mph - N/A   Clear
12:55 PM 41.0 °F 35.8 °F 14.0 °F 33% 30.37 in 10.0 mi ESE 8.1 mph - N/A   Clear
1:15 PM 42.8 °F 35.8 °F 12.2 °F 29% 30.36 in 10.0 mi SSE 13.8 mph 18.4 mph N/A   Clear
1:35 PM 42.8 °F 36.6 °F 10.4 °F 27% 30.35 in 10.0 mi ESE 11.5 mph 19.6 mph N/A   Clear
1:55 PM 42.8 °F 36.6 °F 10.4 °F 27% 30.34 in 10.0 mi ESE 11.5 mph 17.3 mph N/A   Clear
2:15 PM 44.6 °F 38.4 °F 10.4 °F 25% 30.33 in 10.0 mi ESE 12.7 mph 17.3 mph N/A   Clear
2:35 PM 44.6 °F 38.8 °F 10.4 °F 25% 30.32 in 10.0 mi ESE 11.5 mph 18.4 mph N/A   Clear
2:55 PM 46.4 °F 40.7 °F 12.2 °F 25% 30.31 in 10.0 mi SSE 12.7 mph 17.3 mph N/A   Clear
3:15 PM 44.6 °F 38.8 °F 10.4 °F 25% 30.30 in 10.0 mi SSE 11.5 mph 16.1 mph N/A   Clear
3:35 PM 46.4 °F 41.5 °F 10.4 °F 23% 30.29 in 10.0 mi SSE 10.4 mph - N/A   Clear
3:55 PM 44.6 °F 38.1 °F 8.6 °F 23% 30.28 in 10.0 mi South 13.8 mph 20.7 mph N/A   Scattered Clouds
4:15 PM 44.6 °F 38.4 °F 10.4 °F 25% 30.28 in 10.0 mi South 12.7 mph 17.3 mph N/A   Scattered Clouds
4:35 PM 46.4 °F 40.4 °F 10.4 °F 23% 30.27 in 10.0 mi South 13.8 mph 19.6 mph N/A   Scattered Clouds
4:55 PM 46.4 °F 41.1 °F 6.8 °F 20% 30.25 in 10.0 mi SE 11.5 mph 17.3 mph N/A   Scattered Clouds
5:15 PM 44.6 °F 39.7 °F 6.8 °F 21% 30.25 in 10.0 mi SE 9.2 mph - N/A   Scattered Clouds
5:35 PM 44.6 °F 39.2 °F 8.6 °F 23% 30.24 in 10.0 mi SE 10.4 mph - N/A   Mostly Cloudy
5:55 PM 44.6 °F 39.2 °F 8.6 °F 23% 30.24 in 10.0 mi SE 10.4 mph - N/A   Scattered Clouds
6:15 PM 44.6 °F 38.1 °F 8.6 °F 23% 30.23 in 10.0 mi SE 13.8 mph 23.0 mph N/A   Mostly Cloudy
6:35 PM 42.8 °F 36.2 °F 10.4 °F 27% 30.23 in 10.0 mi SE 12.7 mph 18.4 mph N/A   Overcast
6:55 PM 42.8 °F 35.8 °F 10.4 °F 27% 30.22 in 10.0 mi SE 13.8 mph - N/A   Overcast
7:15 PM 42.8 °F 35.4 °F 12.2 °F 29% 30.22 in 10.0 mi SE 15.0 mph 19.6 mph N/A   Overcast
7:35 PM 42.8 °F 36.2 °F 12.2 °F 29% 30.22 in 10.0 mi SE 12.7 mph - N/A   Overcast
7:55 PM 42.8 °F 37.0 °F 12.2 °F 29% 30.22 in 10.0 mi SSE 10.4 mph - N/A   Overcast
8:15 PM 41.0 °F 33.5 °F 10.4 °F 29% 30.22 in 10.0 mi SE 13.8 mph 24.2 mph N/A   Overcast
8:35 PM 41.0 °F 32.8 °F 10.4 °F 29% 30.21 in 10.0 mi SE 16.1 mph 21.9 mph N/A   Overcast
8:55 PM 41.0 °F 33.9 °F 8.6 °F 26% 30.20 in 10.0 mi SE 12.7 mph - N/A   Overcast
9:15 PM 41.0 °F 33.9 °F 8.6 °F 26% 30.20 in 10.0 mi SE 12.7 mph 17.3 mph N/A   Overcast
9:35 PM 41.0 °F 33.5 °F 8.6 °F 26% 30.19 in 10.0 mi SE 13.8 mph 19.6 mph N/A   Overcast
9:55 PM 41.0 °F 34.3 °F 10.4 °F 29% 30.16 in 10.0 mi ESE 11.5 mph 16.1 mph N/A   Overcast
10:15 PM 37.4 °F 29.3 °F 8.6 °F 30% 30.15 in 10.0 mi SE 12.7 mph - N/A   Mostly Cloudy
10:55 PM 37.4 °F 29.8 °F 8.6 °F 30% 30.14 in 10.0 mi SE 11.5 mph - N/A   Overcast
11:15 PM 37.4 °F 28.9 °F 8.6 °F 30% 30.13 in 10.0 mi SE 13.8 mph - N/A   Overcast
11:35 PM 37.4 °F 29.3 °F 10.4 °F 33% 30.12 in 10.0 mi SE 12.7 mph 19.6 mph N/A   Overcast
11:55 PM 37.4 °F 28.2 °F 12.2 °F 36% 30.12 in 10.0 mi SSE 16.1 mph 21.9 mph N/A   Overcast